Location: Peyton Hall Observatory
(40.3466°N, 74.6516°W)
Time: 09:00:21
(UTC-04:00)

ISS - All Passes

Search period start: 24 July 2014 00:00
Search period end: 03 August 2014 00:00
Orbit: 411 x 419 km, 51.6° (Epoch: 24 July)

Date Brightness Start Highest point End Pass type
(mag) Time Alt. Az. Time Alt. Az. Time Alt. Az.
24 Jul - 01:21:24 10° SSW 01:24:30 36° SE 01:27:37 10° ENE visible
24 Jul - 02:58:16 10° W 03:01:15 29° NNW 03:04:16 10° NE visible
24 Jul - 04:37:12 10° NW 04:38:49 13° N 04:40:26 10° NNE visible
24 Jul - 06:14:33 10° NNW 06:16:38 15° NNE 06:18:42 10° NE daylight
24 Jul - 07:50:40 10° NW 07:53:58 51° NNE 07:57:14 10° ESE daylight
24 Jul - 09:28:04 10° W 09:30:25 18° SW 09:32:45 10° S daylight
25 Jul - 00:33:18 10° S 00:35:52 21° SE 00:38:27 10° E night (unlit)
25 Jul - 02:09:09 10° WSW 02:12:23 44° NNW 02:15:38 10° NE visible
25 Jul - 03:47:48 10° NW 03:49:46 15° NNW 03:51:44 10° NNE visible
25 Jul - 05:25:53 10° NNW 05:27:36 13° N 05:29:18 10° NE daylight
25 Jul - 07:02:01 10° NW 07:05:07 33° NNE 07:08:11 10° E daylight
25 Jul - 08:38:47 10° WNW 08:41:48 31° SW 08:44:49 10° SSE daylight
25 Jul - 23:46:05 10° SSE 23:47:20 12° SE 23:48:34 10° ESE night (unlit)
26 Jul - 01:20:16 10° WSW 01:23:36 76° NW 01:26:58 10° NE visible
26 Jul - 02:58:26 10° WNW 03:00:47 18° NNW 03:03:09 10° NNE visible
26 Jul - 04:37:06 10° NNW 04:38:34 12° N 04:40:02 10° NNE visible
26 Jul - 06:13:27 10° NNW 06:16:14 23° NNE 06:19:01 10° ENE daylight
26 Jul - 07:49:51 10° WNW 07:53:10 57° SW 07:56:28 10° SE daylight
27 Jul - 00:31:38 10° SW 00:34:56 60° SE 00:38:15 10° ENE visible
27 Jul - 02:09:09 10° WNW 02:11:53 23° NNW 02:14:38 10° NNE visible
27 Jul - 03:48:07 10° NNW 03:49:34 12° N 03:51:01 10° NNE visible
27 Jul - 05:24:56 10° NNW 05:27:20 18° NNE 05:29:45 10° ENE daylight
27 Jul - 07:01:08 10° NW 07:04:30 80° NE 07:07:52 10° SE daylight
27 Jul - 08:39:43 10° WSW 08:40:46 11° SW 08:41:49 10° SSW daylight
27 Jul - 23:43:19 10° SSW 23:46:21 33° SE 23:49:24 10° ENE night (unlit)
28 Jul - 01:20:01 10° W 01:23:04 31° NNW 01:26:08 10° NE visible
28 Jul - 02:58:56 10° NW 03:00:36 13° N 03:02:17 10° NNE visible
28 Jul - 04:36:25 10° NNW 04:38:26 15° NNE 04:40:27 10° NE visible
28 Jul - 06:12:32 10° NW 06:15:49 47° NNE 06:19:04 10° ESE daylight
28 Jul - 07:49:48 10° W 07:52:19 20° SW 07:54:49 10° S daylight
28 Jul - 22:55:27 10° S 22:57:51 19° SE 23:00:17 10° E night (unlit)
29 Jul - 00:31:05 10° WSW 00:34:20 48° NNW 00:37:37 10° NE visible
29 Jul - 02:09:40 10° NW 02:11:42 15° NNW 02:13:44 10° NNE visible
29 Jul - 03:47:52 10° NNW 03:49:32 13° N 03:51:11 10° NE visible
29 Jul - 05:24:02 10° NW 05:27:05 31° NNE 05:30:07 10° E visible
29 Jul - 07:00:44 10° WNW 07:03:50 34° SW 07:06:55 10° SSE daylight
29 Jul - 22:08:48 10° SE 22:09:28 10° SE 22:10:07 10° ESE night (unlit)
29 Jul - 23:42:22 10° SW 23:45:42 83° NW 23:49:05 10° NE night (unlit)
30 Jul - 01:20:26 10° WNW 01:22:52 18° NNW 01:25:18 10° NNE visible
30 Jul - 02:59:11 10° NNW 03:00:38 12° N 03:02:05 10° NNE visible
30 Jul - 04:35:36 10° NNW 04:38:20 22° NNE 04:41:03 10° ENE visible
30 Jul - 06:11:58 10° WNW 06:15:19 64° SW 06:18:39 10° SE daylight
30 Jul - 22:53:55 10° SW 22:57:10 54° SE 23:00:28 10° ENE night (unlit)
31 Jul - 00:31:19 10° W 00:34:06 24° NNW 00:36:54 10° NNE visible
31 Jul - 02:10:17 10° NNW 02:11:46 12° N 02:13:15 10° NNE visible
31 Jul - 03:47:13 10° NNW 03:49:34 17° NNE 03:51:55 10° ENE visible
31 Jul - 05:23:24 10° NW 05:26:46 73° NE 05:30:08 10° ESE visible
31 Jul - 07:01:37 10° WSW 07:03:05 12° SW 07:04:33 10° SSW daylight
31 Jul - 22:05:47 10° SSW 22:08:44 30° SE 22:11:42 10° ENE night (unlit)
31 Jul - 23:42:21 10° W 23:45:25 33° NNW 23:48:31 10° NE night (unlit)
01 Aug - 01:21:13 10° NW 01:22:57 13° N 01:24:41 10° NNE visible
01 Aug - 02:58:50 10° NNW 03:00:47 14° NNE 03:02:44 10° NE visible
01 Aug - 04:34:57 10° NW 04:38:12 43° NNE 04:41:26 10° ESE visible
01 Aug - 06:12:06 10° W 06:14:45 22° SW 06:17:24 10° S daylight
01 Aug - 21:18:08 10° S 21:20:23 17° SE 21:22:39 10° E visible
01 Aug - 22:53:34 10° WSW 22:56:50 52° NNW 23:00:08 10° NE visible
02 Aug - 00:32:05 10° NW 00:34:11 15° NNW 00:36:17 10° NNE visible
02 Aug - 02:10:24 10° NNW 02:12:01 13° N 02:13:38 10° NE visible
02 Aug - 03:46:36 10° NW 03:49:36 29° NNE 03:52:36 10° E visible
02 Aug - 05:23:14 10° WNW 05:26:24 38° SW 05:29:32 10° SSE visible
02 Aug - 22:05:01 10° SW 22:08:21 90° SE 22:11:43 10° NE visible
02 Aug - 23:43:00 10° WNW 23:45:29 19° NNW 23:47:58 10° NNE visible
